Погода в Зенджане

Иран     36°40′52″N   48°29′31″E
темп.,
°C
ветер,
м/с
пор.,
м/с
влажн.,
%
обл.,
%
осадки,
мм/ч
давл.,
гПа
погр.,
м
17 мая, вт
вт1701:30+10всв33622 0.0 1015131
04:30+7всв327377 0.0 1016106
07:30+8всв3373100 0.0 1016191
10:30+12св2258100 0.0 1015725
13:30+17зсз134129 0.0 10121614
16:30+18ссв353994 0.0 10091670
19:30+14всв436015 0.1 1011379
22:30+11всв337715 0.2 1014188
18 мая, ср
ср1801:30+11в11730 0.2 101497
04:30+10ссв01722 0.2 1014117
07:30+11зсз11650 0.0 1015227
10:30+15зсз23452 0.0 10141459
13:30+18з243119 0.0 10122554
16:30+20ссз362585 0.1 10102876
19:30+18ссз363497 0.0 10101435
22:30+13ссз6105378 0.1 1016494
19 мая, чт
чт1901:30+12з23480 0.0 1014203
04:30+12з36450 0.0 1015476
07:30+13з12450 0.0 1016272
10:30+16з33330 0.0 10151508
13:30+20зюз35250 0.0 10132225
16:30+22зсз35180 0.0 10112788
19:30+21зсз46222 0.0 10111196
22:30+17зюз59260 0.0 1014386
20 мая, пт
пт2001:30+14ююз12340 0.0 1015106
04:30+12ююв12390 0.0 101475
07:30+13вюв33410 0.0 1016168
10:30+18ю34270 0.0 10141241
13:30+22з8131617 0.0 10113777
16:30+23з7131894 0.0 10093925
19:30+9всв777899 0.4 1018284
22:30+5всв568563 0.6 1021284
21 мая, сб
сб2101:30+4св448673 0.0 1022339
04:30+4св348679 0.0 1023390
07:30+5св337722 0.0 1024412
10:30+9св33562 0.0 1022697
13:30+14св22420 0.0 10191118
16:30+17ссв22320 0.0 10161345
19:30+16св22360 0.0 1015708
22:30+12св22510 0.0 101794